Angoon, AK

6:29 AM AKDT on October 18, 2019 (GMT -0800)
Angoon

Weather History for PAGN - May, 2019

Change the Weather History Date:

Wednesday, May 1, 2019

  Actual Average (PASI) Record (PASI)
Temperature  
Mean Temperature 48 °F -  
Max Temperature 55 °F 51 °F 68 °F (1989)
Min Temperature 43 °F 39 °F 31 °F (1949)
Degree Days  
Heating Degree Days 16    
Moisture  
Dew Point 39 °F    
Average Humidity 72    
Maximum Humidity 86    
Minimum Humidity 59    
Precipitation  
Precipitation 0.00 in - - ()
Sea Level Pressure  
Sea Level Pressure 30.05 in    
Wind  
Wind Speed 2 mph (West)    
Max Wind Speed 6 mph    
Max Gust Speed -    
Visibility 10 miles    
Events      
Averages and records for this station are not official NWS values.
T = Trace of Precipitation, MM = Missing Value Source: NWS Daily Summary

Daily Weather History Graph

Daily Weather History Graph

Search for Another Location

Airport or City:

Astronomy

May. 01, 2019 Rise Set
Actual Time 5:08 AM AKDT 8:44 PM AKDT
Civil Twilight 4:20 AM AKDT 9:31 PM AKDT
Nautical Twilight 3:13 AM AKDT 10:40 PM AKDT
Astronomical Twilight 1:27 AM AKDT 12:22 AM AKDT
Moon 4:58 AM AKDT (5/1) 4:43 PM AKDT (5/1)
Length of Visible Light 17h 10m
Length of Day
15h 35m
Waning Crescent, 10% of the Moon is Illuminated
May 1
Waning Crescent
May 4
New
May 11
First Quarter
May 18
Full
May 26
Last Quarter

Hourly Weather History & Observations

Time (AKDT) Temp. Windchill Dew Point Humidity Pressure Visibility Wind Dir Wind Speed Gust Speed Precip Events Conditions
12:56 AM 46.0 °F - 37.9 °F 73% 30.17 in 10.0 mi Calm Calm - N/A   Clear
1:56 AM 44.1 °F 42.5 °F 37.9 °F 79% 30.16 in 10.0 mi Variable 3.5 mph - N/A   Clear
2:56 AM 44.1 °F - 37.9 °F 79% 30.15 in 10.0 mi Calm Calm - N/A   Clear
3:56 AM 44.1 °F 42.5 °F 37.9 °F 79% 30.14 in 10.0 mi Variable 3.5 mph - N/A   Clear
4:56 AM 43.0 °F 41.3 °F 39.0 °F 86% 30.13 in 10.0 mi Variable 3.5 mph - N/A   Clear
5:56 AM 43.0 °F - 39.0 °F 86% 30.11 in 10.0 mi Calm Calm - N/A   Clear
6:56 AM 44.1 °F 42.5 °F 37.9 °F 79% 30.11 in 10.0 mi Variable 3.5 mph - N/A   Clear
7:56 AM 45.0 °F 42.6 °F 37.9 °F 76% 30.11 in 10.0 mi Variable 4.6 mph - N/A   Clear
8:56 AM 46.0 °F 44.8 °F 37.9 °F 73% 30.09 in 10.0 mi Variable 3.5 mph - N/A   Clear
9:56 AM 46.9 °F - 37.9 °F 71% 30.08 in 10.0 mi Variable 3.5 mph - N/A   Clear
10:56 AM 48.9 °F - 37.0 °F 64% 30.06 in 10.0 mi Variable 5.8 mph - N/A   Clear
11:56 AM 48.9 °F - 37.9 °F 66% 30.04 in 10.0 mi Variable 5.8 mph - N/A   Clear
12:56 PM 51.1 °F - 39.9 °F 66% 30.03 in 10.0 mi Calm Calm - N/A   Clear
1:56 PM 50.0 °F - 39.0 °F 66% 30.02 in 10.0 mi North 3.5 mph - N/A   Clear
2:56 PM 53.1 °F - 39.0 °F 59% 30.01 in 10.0 mi SSW 5.8 mph - N/A   Clear
3:56 PM 53.1 °F - 39.0 °F 59% 30.00 in 10.0 mi Variable 4.6 mph - N/A   Clear
4:56 PM 54.0 °F - 39.9 °F 59% 29.99 in 10.0 mi Variable 4.6 mph - N/A   Clear
5:56 PM 51.1 °F - 39.9 °F 66% 29.99 in 10.0 mi Calm Calm - N/A   Clear
6:56 PM 48.9 °F - 39.9 °F 71% 29.98 in 10.0 mi Variable 5.8 mph - N/A   Clear
7:56 PM 48.0 °F - 39.9 °F 74% 29.97 in 10.0 mi Calm Calm - N/A   Clear
8:56 PM 46.0 °F - 39.0 °F 76% 29.98 in 10.0 mi Calm Calm - N/A   Clear
9:56 PM 46.0 °F - 39.0 °F 76% 29.99 in 10.0 mi Calm Calm - N/A   Scattered Clouds
10:56 PM 46.0 °F - 39.0 °F 76% 30.00 in 10.0 mi Calm Calm - N/A   Overcast
11:56 PM 46.0 °F 44.8 °F 39.0 °F 76% 30.00 in 10.0 mi Variable 3.5 mph - N/A   Overcast